This is the latest recevied weather packets stored in our database for station/object SV1RVP-13. If no packets are shown the sender has not sent any weather packets the latest 10 day(s).
| Time | Temp. | Humidity | Pressure | Rain* | Wind** | Luminosity | Snow |
|---|---|---|---|---|---|---|---|
| 1777601323 | 15° C | 73% | 1015 hPa | 0 mm | - | - | - |
| 1777600718 | 15.56° C | 72% | 1014.6 hPa | 0 mm | - | - | - |
| 1777600110 | 15.56° C | 72% | 1014.8 hPa | 0 mm | - | - | - |
| 1777599511 | 15° C | 73% | 1014.7 hPa | 0 mm | - | - | - |
| 1777598915 | 15° C | 74% | 1014.7 hPa | 0 mm | - | - | - |
| 1777598325 | 15° C | 75% | 1014.6 hPa | 0 mm | - | - | - |
| 1777597708 | 15° C | 75% | 1014.3 hPa | 0 mm | - | - | - |
| 1777597122 | 15.56° C | 76% | 1014.2 hPa | 0 mm | - | - | - |
| 1777596512 | 15.56° C | 78% | 1014.1 hPa | 0 mm | - | - | - |
| 1777595914 | 15.56° C | 78% | 1014.3 hPa | 0 mm | - | - | - |
| 1777595316 | 15.56° C | 78% | 1014.1 hPa | 0 mm | - | - | - |
| 1777594708 | 15.56° C | 78% | 1014.1 hPa | 0 mm | - | - | - |
| 1777594108 | 15.56° C | 77% | 1014.1 hPa | 0 mm | - | - | - |
| 1777593524 | 16.11° C | 77% | 1014.1 hPa | 0 mm | - | - | - |
| 1777592912 | 16.11° C | 76% | 1014.2 hPa | 0 mm | - | - | - |
| 1777592315 | 16.67° C | 73% | 1014.1 hPa | 0 mm | - | - | - |
| 1777591716 | 16.67° C | 71% | 1014.2 hPa | 0 mm | - | - | - |
| 1777591124 | 17.22° C | 69% | 1014.1 hPa | 0 mm | - | - | - |
| 1777590513 | 17.22° C | 69% | 1014.2 hPa | 0 mm | - | - | - |
| 1777589928 | 17.22° C | 69% | 1014.3 hPa | 0 mm | - | - | - |
| 1777589323 | 17.22° C | 69% | 1014.2 hPa | 0 mm | - | - | - |
| 1777588710 | 17.22° C | 70% | 1013.9 hPa | 0 mm | - | - | - |
| 1777588131 | 17.78° C | 70% | 1014 hPa | 0 mm | - | - | - |
| 1777587515 | 18.33° C | 67% | 1014.1 hPa | 0 mm | - | - | - |
| 1777586917 | 18.33° C | 66% | 1013.9 hPa | 0 mm | - | - | - |
* Rain since midnight (hover to see other rain measurements)
** Current wind speed in m/s (hover to see current wind gust speed)